KAL2005 KSEA-RKSI

Flight info

Callsign KAL2005
Flight time N/A
Altitude 34000
Route BANGR9 ARRIE J523 TOU DCT SEFIX DCT PRETY DCT 50N140W 52N150W/N0476F360 55N160W 56N170W DCT POOFF DCT NATES/N0475F370 R220 NIKLL/N0478F380 R220 NODAN/N0483F390 R220 NANAC/N0484F380 R220 IXE Y88 TEPEX Y16 ADGOM/N0484F400 Y16 SAPRA Y685 GUKDO GUKDO2C
Aircraft A333/H-SDE3GHIJ2J3J5M1RVWXY/LB2D1

Departure

Time 2026-05-04 06:11
Airport Seattle–Tacoma International Airport (KSEA)

Arrival

Time N/A
Airport Incheon International Airport (RKSI)
Time Latitude Longitude Altitude Speed Heading
2026-05-04 05:47 47.43798 -122.30430 391 ft 0 kts 43°
2026-05-04 06:00 47.43796 -122.30432 393 ft 2 kts 43°
2026-05-04 06:01 47.43784 -122.30450 391 ft 2 kts 43°
2026-05-04 06:01 47.43771 -122.30467 400 ft 3 kts 54°
2026-05-04 06:03 47.43782 -122.30530 392 ft 0 kts 182°
2026-05-04 06:05 47.43347 -122.30564 393 ft 15 kts 180°
2026-05-04 06:05 47.43169 -122.30540 393 ft 10 kts 187°
2026-05-04 06:05 47.43158 -122.30545 392 ft 0 kts 197°
2026-05-04 06:06 47.43157 -122.30546 392 ft 2 kts 197°
2026-05-04 06:06 47.43142 -122.30555 392 ft 2 kts 208°
2026-05-04 06:06 47.43122 -122.30587 392 ft 6 kts 234°
2026-05-04 06:06 47.43111 -122.30660 395 ft 6 kts 282°
2026-05-04 06:07 47.43111 -122.30662 395 ft 0 kts 284°
2026-05-04 06:07 47.43114 -122.30672 392 ft 6 kts 290°
2026-05-04 06:07 47.43136 -122.30736 396 ft 7 kts 300°
2026-05-04 06:08 47.43167 -122.30786 393 ft 6 kts 325°
2026-05-04 06:08 47.43207 -122.30804 396 ft 6 kts 353°
2026-05-04 06:08 47.43217 -122.30804 397 ft 0 kts 357°
2026-05-04 06:11 47.48974 -122.31208 2338 ft 180 kts 357°
2026-05-04 06:11 47.50238 -122.31146 2935 ft 185 kts
2026-05-04 06:13 47.60334 -122.35771 4952 ft 267 kts 304°
2026-05-04 06:14 47.68297 -122.45996 8558 ft 281 kts 358°
2026-05-04 06:14 47.70236 -122.46397 9173 ft 284 kts 343°
2026-05-04 06:15 47.72007 -122.47727 9764 ft 289 kts 322°
2026-05-04 06:15 47.73328 -122.49996 10219 ft 299 kts 300°
2026-05-04 06:15 47.74161 -122.52913 10443 ft 315 kts 289°
2026-05-04 06:15 47.74766 -122.56128 10683 ft 332 kts 284°
2026-05-04 06:16 47.75253 -122.59518 10909 ft 347 kts 282°
2026-05-04 06:16 47.75716 -122.63123 11112 ft 361 kts 281°
2026-05-04 06:16 47.76197 -122.66851 11335 ft 374 kts 282°
2026-05-04 06:16 47.76716 -122.70691 11675 ft 382 kts 282°
2026-05-04 06:17 47.77259 -122.74523 12123 ft 386 kts 283°
2026-05-04 06:17 47.77816 -122.78327 12618 ft 388 kts 283°
2026-05-04 06:17 47.78401 -122.82256 13116 ft 391 kts 283°
2026-05-04 06:17 47.78996 -122.86217 13613 ft 393 kts 283°
2026-05-04 06:18 47.79595 -122.90203 14062 ft 395 kts 284°